When you browse on this site, cookies collect data to enhance your experience and personalize the content and advertising you see.
Visit our Privacy Policy to learn more. By continuing to use the site, you agree to this use of cookies and data.

Hourly Weather Makeevka

Today, 5 August, Wednesday

Time Temperature Precipitation Wind Pressure Humidity
00:00 +16°C° 0 mm 2 mps 751 mmHg 81%
01:00 +15°C° 0 mm 2 mps 751 mmHg 82%
02:00 +15°C° 0 mm 2 mps 751 mmHg 84%
03:00 +15°C° 0 mm 2 mps 751 mmHg 84%
04:00 +15°C° 0 mm 1 mps 751 mmHg 84%
05:00 +15°C° 0 mm 1 mps 751 mmHg 85%
06:00 +17°C° 0 mm 2 mps 751 mmHg 80%
07:00 +19°C° 0 mm 2 mps 752 mmHg 74%
08:00 +21°C° 0 mm 2 mps 752 mmHg 69%
09:00 +23°C° 0 mm 2 mps 752 mmHg 65%
10:00 +24°C° 0 mm 2 mps 752 mmHg 61%
11:00 +25°C° 0 mm 1 mps 752 mmHg 56%
12:00 +26°C° 0 mm 1 mps 751 mmHg 55%
13:00 +26°C° 0 mm 1 mps 751 mmHg 53%
14:00 +25°C° 0 mm 0 mps 751 mmHg 51%
15:00 +25°C° 0 mm 0 mps 751 mmHg 54%
16:00 +24°C° 0 mm 0 mps 751 mmHg 56%
17:00 +24°C° 0 mm 0 mps 751 mmHg 59%
18:00 +24°C° 0 mm 1 mps 751 mmHg 64%
19:00 +22°C° 0 mm 1 mps 751 mmHg 69%
20:00 +20°C° 0 mm 1 mps 751 mmHg 74%
21:00 +20°C° 0 mm 1 mps 751 mmHg 76%
22:00 +19°C° 0 mm 1 mps 752 mmHg 78%
23:00 +19°C° 0 mm 1 mps 752 mmHg 80%

Tomorrow, 6 August, Thursday

Time Temperature Precipitation Wind Pressure Humidity
00:00 +18°C° 0 mm 1 mps 752 mmHg 82%
01:00 +16°C° 0 mm 0 mps 752 mmHg 83%
02:00 +16°C° 0 mm 0 mps 752 mmHg 84%
03:00 +16°C° 0 mm 0 mps 752 mmHg 84%
04:00 +16°C° 0 mm 0 mps 752 mmHg 83%
05:00 +16°C° 0 mm 0 mps 752 mmHg 83%
06:00 +18°C° 0 mm 0 mps 752 mmHg 78%
07:00 +22°C° 0 mm 1 mps 753 mmHg 73%
08:00 +24°C° 0 mm 1 mps 753 mmHg 68%
09:00 +25°C° 0 mm 1 mps 753 mmHg 64%
10:00 +26°C° 0 mm 1 mps 753 mmHg 60%
11:00 +27°C° 0 mm 1 mps 752 mmHg 56%
12:00 +27°C° 0 mm 1 mps 752 mmHg 55%
13:00 +28°C° 0 mm 1 mps 752 mmHg 54%
14:00 +28°C° 0 mm 1 mps 752 mmHg 53%
15:00 +28°C° 0 mm 1 mps 752 mmHg 57%
16:00 +28°C° 0 mm 1 mps 752 mmHg 61%
17:00 +27°C° 0 mm 1 mps 751 mmHg 65%
18:00 +26°C° 0 mm 2 mps 752 mmHg 71%
19:00 +24°C° 0 mm 2 mps 752 mmHg 78%
20:00 +21°C° 0 mm 2 mps 752 mmHg 84%
21:00 +20°C° 0 mm 3 mps 752 mmHg 87%
22:00 +20°C° 0 mm 3 mps 752 mmHg 91%
23:00 +19°C° 0 mm 3 mps 752 mmHg 94%

Day after tomorrow, 7 August, Friday

Time Temperature Precipitation Wind Pressure Humidity
00:00 +18°C° 0 mm 3 mps 752 mmHg 93%
01:00 +18°C° 0 mm 3 mps 752 mmHg 92%
02:00 +17°C° 0 mm 3 mps 752 mmHg 91%
03:00 +16°C° 0 mm 3 mps 753 mmHg 92%
04:00 +16°C° 0 mm 3 mps 753 mmHg 92%
05:00 +16°C° 0 mm 3 mps 753 mmHg 93%
06:00 +17°C° 0 mm 4 mps 753 mmHg 88%
07:00 +19°C° 0 mm 5 mps 753 mmHg 83%
08:00 +20°C° 0 mm 5 mps 753 mmHg 78%
09:00 +21°C° 0 mm 5 mps 753 mmHg 72%
10:00 +22°C° 0 mm 5 mps 753 mmHg 66%
11:00 +23°C° 0 mm 5 mps 754 mmHg 59%
12:00 +23°C° 0 mm 5 mps 753 mmHg 59%
13:00 +25°C° 0 mm 5 mps 753 mmHg 58%
14:00 +25°C° 0 mm 5 mps 753 mmHg 57%
15:00 +25°C° 0 mm 5 mps 753 mmHg 60%
16:00 +23°C° 0 mm 4 mps 753 mmHg 63%
17:00 +23°C° 0 mm 4 mps 753 mmHg 67%
18:00 +21°C° 0 mm 3 mps 753 mmHg 70%
19:00 +20°C° 0 mm 3 mps 753 mmHg 73%
20:00 +18°C° 0 mm 3 mps 753 mmHg 76%
21:00 +17°C° 0 mm 3 mps 753 mmHg 78%
22:00 +17°C° 0 mm 3 mps 753 mmHg 80%
23:00 +16°C° 0 mm 3 mps 753 mmHg 81%

8 August, Saturday

Time Temperature Precipitation Wind Pressure Humidity
00:00 +16°C° 0 mm 3 mps 753 mmHg 83%
01:00 +14°C° 0 mm 3 mps 753 mmHg 85%
02:00 +14°C° 0 mm 3 mps 753 mmHg 87%
03:00 +14°C° 0 mm 3 mps 753 mmHg 87%
04:00 +14°C° 0 mm 3 mps 753 mmHg 88%
05:00 +14°C° 0 mm 3 mps 753 mmHg 88%
06:00 +16°C° 0 mm 3 mps 753 mmHg 82%
07:00 +18°C° 0 mm 3 mps 753 mmHg 77%
08:00 +20°C° 0 mm 4 mps 753 mmHg 71%
09:00 +21°C° 0 mm 4 mps 753 mmHg 67%
10:00 +22°C° 0 mm 4 mps 753 mmHg 62%
11:00 +23°C° 0 mm 4 mps 753 mmHg 58%
12:00 +23°C° 0 mm 4 mps 753 mmHg 57%
13:00 +23°C° 0 mm 4 mps 752 mmHg 57%
14:00 +25°C° 0 mm 4 mps 752 mmHg 56%
15:00 +24°C° 0 mm 3 mps 752 mmHg 59%
16:00 +24°C° 0 mm 3 mps 751 mmHg 62%
17:00 +24°C° 0 mm 2 mps 751 mmHg 66%
18:00 +21°C° 0 mm 2 mps 751 mmHg 70%
19:00 +20°C° 0 mm 1 mps 751 mmHg 74%
20:00 +18°C° 0 mm 1 mps 750 mmHg 78%
21:00 +18°C° 0 mm 1 mps 750 mmHg 79%
22:00 +18°C° 0 mm 1 mps 750 mmHg 79%
23:00 +16°C° 0 mm 1 mps 750 mmHg 80%

9 August, Sunday

Time Temperature Precipitation Wind Pressure Humidity
00:00 +16°C° 0 mm 1 mps 750 mmHg 82%
01:00 +15°C° 0 mm 1 mps 750 mmHg 85%
02:00 +15°C° 0 mm 1 mps 749 mmHg 87%
03:00 +15°C° 0 mm 1 mps 749 mmHg 88%
04:00 +15°C° 0 mm 2 mps 749 mmHg 88%
05:00 +15°C° 0 mm 2 mps 749 mmHg 89%
06:00 +17°C° 0 mm 2 mps 749 mmHg 85%
07:00 +18°C° 0 mm 2 mps 748 mmHg 81%
08:00 +20°C° 0 mm 2 mps 748 mmHg 77%
09:00 +21°C° 0.5 mm 2 mps 748 mmHg 75%
10:00 +23°C° 0.5 mm 2 mps 748 mmHg 73%
11:00 +22°C° 0.5 mm 3 mps 748 mmHg 70%
12:00 +24°C° 0.1 mm 3 mps 747 mmHg 65%
13:00 +25°C° 0.1 mm 3 mps 747 mmHg 59%
14:00 +25°C° 0.1 mm 3 mps 747 mmHg 53%
15:00 +25°C° 0 mm 3 mps 747 mmHg 57%
16:00 +25°C° 0 mm 2 mps 746 mmHg 60%
17:00 +24°C° 0 mm 2 mps 746 mmHg 64%
18:00 +21°C° 0 mm 2 mps 746 mmHg 68%
19:00 +20°C° 0 mm 2 mps 746 mmHg 72%
20:00 +19°C° 0 mm 1 mps 746 mmHg 75%
21:00 +18°C° 0 mm 1 mps 746 mmHg 78%
22:00 +18°C° 0 mm 1 mps 746 mmHg 81%
23:00 +16°C° 0 mm 1 mps 747 mmHg 84%

10 August, Monday

Time Temperature Precipitation Wind Pressure Humidity
00:00 +16°C° 0 mm 1 mps 746 mmHg 84%
01:00 +15°C° 0 mm 1 mps 746 mmHg 85%
02:00 +15°C° 0 mm 1 mps 746 mmHg 86%
03:00 +15°C° 0 mm 2 mps 746 mmHg 85%
04:00 +15°C° 0 mm 2 mps 746 mmHg 85%
05:00 +14°C° 0 mm 2 mps 746 mmHg 84%
06:00 +16°C° 0 mm 2 mps 746 mmHg 80%
07:00 +18°C° 0 mm 3 mps 746 mmHg 76%
08:00 +19°C° 0 mm 3 mps 746 mmHg 72%
09:00 +20°C° 0.1 mm 3 mps 746 mmHg 69%
10:00 +21°C° 0.1 mm 4 mps 747 mmHg 65%
11:00 +22°C° 0.1 mm 4 mps 747 mmHg 62%
12:00 +22°C° 0.1 mm 4 mps 746 mmHg 60%
13:00 +22°C° 0.1 mm 4 mps 746 mmHg 59%
14:00 +22°C° 0.1 mm 4 mps 746 mmHg 58%
15:00 +21°C° 0 mm 4 mps 746 mmHg 59%
16:00 +21°C° 0 mm 4 mps 746 mmHg 61%
17:00 +21°C° 0 mm 3 mps 746 mmHg 63%
18:00 +19°C° 0 mm 3 mps 747 mmHg 66%
19:00 +17°C° 0 mm 3 mps 747 mmHg 70%
20:00 +15°C° 0 mm 2 mps 747 mmHg 74%
21:00 +14°C° 0 mm 2 mps 747 mmHg 76%
22:00 +13°C° 0 mm 2 mps 748 mmHg 78%
23:00 +13°C° 0 mm 2 mps 748 mmHg 81%
Show more